Location: Ahausen
(50.4985°N, 8.2722°E)
Time: 03:51:52
(UTC+00:00)

IGS 5A - Pass Details

Date: 18 September 2020
Orbit: 583 x 588 km, 97.6° (Epoch: 09 October)

Event Time Altitude Azimuth Distance (km) Brightness Sun altitude
Exits shadow 19:37:08 32° 61° (ENE) 1,021 4.4 -19.7°
Drops below altitude 10° 19:40:40 10° 4° (N) 1,919 6.4 -20.2°
Sets 19:42:59 0° 354° (N) 2,824 7.4 -20.5°
